Wind_Speed
9 6 5 3 3 4 4 8 4 14 8 3 9 6 8 7 8 5 8 30 42 45 42 38 36 34 33 32 29 27 25 22 20 19 17 15 14 14 13 11 10 9 9 9 8 8 7 7 6
8 3 3 2 4 0 6 6 16 8 10 18 22 7 3 3 2 9 17 36 46 47 43 40 38 35 33 32 30 28 26 24 22 19 17 15 14 12 11 10 9 8 9 8 8 8 7 7 6
5 3 3 3 4 6 6 4 4 7 15 16 7 8 8 8 4 18 21 45 48 47 44 42 40 37 35 32 30 28 27 26 23 20 18 16 14 13 11 10 9 9 9 9 9 9 8 7 6
1 4 3 2 10 7 6 13 12 15 13 9 8 3 3 11 24 23 39 49 50 48 45 43 42 39 37 33 31 28 26 24 24 22 20 18 15 14 12 11 11 10 11 10 9 9 8 7 6
1 3 0 4 9 7 8 8 8 10 11 12 15 4 9 11 21 36 46 51 50 48 45 44 42 39 37 34 32 30 27 25 24 23 22 19 17 15 14 13 12 12 12 11 10 10 10 9 8
1 3 1 6 10 9 6 8 6 6 9 11 12 9 6 11 33 43 52 53 50 51 47 45 42 39 37 35 33 31 28 26 24 23 22 20 18 17 15 15 14 14 14 12 12 12 11 9 8
4 3 6 5 9 12 8 5 8 6 8 8 4 4 4 5 27 46 50 49 48 48 48 45 43 40 36 35 33 30 28 26 24 23 21 20 19 18 17 17 16 16 16 15 14 14 13 11 10
3 3 4 6 10 13 8 5 5 6 11 6 6 6 4 3 14 21 27 30 38 45 46 45 41 40 37 34 32 30 27 26 24 23 22 20 20 20 20 19 19 20 19 18 17 17 15 14 13
1 2 8 7 11 9 14 7 14 10 9 8 6 3 7 15 18 22 29 25 30 35 41 41 41 39 37 35 33 30 27 25 24 23 23 22 23 23 22 22 21 22 22 20 20 19 18 16 15
5 5 8 6 10 9 14 18 18 17 21 14 9 9 13 28 26 18 16 17 23 27 38 41 40 38 36 34 33 32 30 29 28 27 26 26 26 25 25 24 23 23 24 23 23 22 20 18 18
4 11 6 7 6 8 16 22 17 15 18 15 3 8 7 6 10 6 17 25 36 39 36 38 40 38 37 34 33 32 32 30 30 29 28 28 27 27 27 27 26 25 25 27 25 25 24 23 22
8 10 7 9 13 13 19 20 20 17 20 19 11 7 3 0 5 5 15 30 30 34 41 41 40 41 40 38 36 35 34 32 31 31 31 31 30 30 30 29 29 27 28 30 28 28 28 26 25
8 10 10 11 13 13 14 21 22 26 21 19 20 9 4 5 6 6 5 18 23 24 30 37 40 42 41 41 38 36 35 34 33 32 32 33 33 33 32 32 32 29 29 30 28 29 29 28 28
5 5 10 7 10 8 14 19 16 28 19 17 20 15 7 6 8 10 4 7 21 31 31 35 37 39 38 39 37 36 34 32 31 32 31 32 32 33 33 33 33 31 32 32 29 30 29 29 28
6 7 8 5 3 5 6 18 21 15 11 16 17 18 13 9 10 10 20 16 16 25 32 35 38 37 36 36 35 33 30 31 31 33 31 29 29 32 31 31 31 30 32 31 30 30 29 27 26
5 1 1 3 6 5 7 23 19 12 13 20 15 16 19 11 9 21 17 15 23 27 25 29 35 39 35 36 33 30 27 29 32 33 33 30 28 32 31 31 31 28 30 31 32 30 30 28 25
3 4 4 5 6 6 7 17 6 9 10 17 18 15 13 17 9 21 28 14 21 26 35 36 33 30 33 34 33 31 29 29 33 33 33 31 29 31 33 31 32 28 29 31 31 31 29 28 26
6 6 4 3 3 2 9 15 6 7 8 8 9 12 16 17 20 17 28 33 20 21 30 39 40 34 28 29 37 37 34 34 32 34 32 34 30 30 30 31 34 29 29 31 31 30 29 27 26
7 7 6 4 5 4 8 16 13 6 6 9 11 12 13 14 17 19 27 33 36 23 30 45 39 41 44 41 33 32 34 38 39 37 36 38 35 34 33 33 35 30 31 34 31 29 27 23 19
7 5 7 4 9 11 9 20 18 11 6 8 11 13 9 12 16 18 21 28 35 32 28 40 45 41 44 45 41 32 38 45 41 36 33 31 32 32 32 34 34 30 33 31 30 29 20 18 18
5 4 6 7 11 5 6 19 12 11 7 8 8 8 9 10 13 17 19 19 31 29 26 35 41 45 49 50 42 30 28 18 22 27 27 27 27 31 32 33 33 30 34 29 24 25 23 15 16
2 6 9 11 8 3 4 13 14 14 11 8 9 9 10 13 13 14 15 16 22 29 26 31 41 48 48 48 39 37 29 23 29 27 25 23 27 23 30 32 30 28 28 24 24 22 21 18 13
4 3 4 5 8 2 5 6 9 14 19 18 15 14 17 16 14 16 16 22 31 36 31 29 34 45 45 48 44 38 33 30 26 26 20 22 23 24 29 29 26 28 25 22 23 22 20 20 19
2 4 6 5 1 5 6 7 21 9 13 13 13 16 15 15 17 16 18 25 25 33 32 33 31 41 40 37 36 36 34 29 28 25 19 22 22 25 26 24 24 23 22 22 24 22 19 19 17
5 4 4 4 2 5 1 6 13 12 15 18 8 10 11 14 13 15 20 20 22 24 30 33 35 37 37 36 37 38 38 37 36 28 24 22 25 26 26 25 24 22 23 19 19 19 19 17 18
4 6 4 4 4 11 17 8 8 8 10 1 2 5 9 12 13 17 18 19 20 24 31 32 34 35 41 42 43 44 41 40 37 29 26 24 32 32 28 26 24 18 23 18 16 18 17 17 15
2 3 6 3 8 5 8 13 11 3 6 10 9 9 11 13 15 18 20 20 24 28 27 33 34 37 41 44 44 40 39 34 33 30 26 28 32 32 29 26 24 20 21 19 17 18 18 18 16
4 3 2 1 3 5 4 8 8 7 10 9 11 9 11 13 13 15 17 19 25 20 30 37 37 37 41 42 41 40 39 36 35 31 27 29 30 31 29 26 22 22 22 20 19 19 18 17 14
4 2 2 1 2 3 5 6 6 10 9 8 13 13 14 12 11 14 15 18 28 9 14 18 20 23 25 28 30 29 28 30 31 27 27 28 29 29 28 26 24 22 22 22 21 18 16 15 16
10 5 4 3 5 3 5 9 9 6 6 8 11 15 15 11 10 13 13 16 17 12 3 6 7 13 18 21 25 27 25 25 27 27 28 30 30 26 28 26 24 23 24 22 19 17 16 17 18
Wind_Direction
336 331 325 48 62 64 248 255 276 284 336 248 291 264 166 168 155 210 166 156 160 156 162 165 165 157 153 152 154 154 154 156 156 156 155 155 151 148 149 144 142 140 138 139 142 139 136 132 129
340 48 43 84 102 96 264 245 256 288 268 293 300 245 129 161 150 126 125 163 159 158 163 168 168 162 157 156 158 161 160 163 165 165 166 167 162 160 158 158 158 158 157 160 159 154 152 148 144
25 77 83 117 168 193 234 241 245 293 296 282 277 208 142 166 83 145 165 160 162 161 165 171 170 167 161 162 164 167 169 170 171 172 175 176 173 170 174 179 178 180 178 177 174 174 169 162 160
70 35 24 119 247 252 250 299 306 309 300 285 319 143 86 190 157 161 161 162 163 163 169 174 173 170 165 167 169 173 176 177 178 179 181 183 183 183 188 194 195 195 194 192 191 187 185 182 181
205 79 38 244 255 265 283 280 292 299 295 304 328 281 134 153 153 159 161 164 165 166 173 177 176 174 169 172 175 177 181 185 186 185 185 188 191 196 199 206 207 210 209 205 205 203 201 195 200
345 122 145 236 260 274 282 285 280 269 282 302 335 322 163 154 145 159 163 168 170 169 175 178 178 179 175 176 180 182 185 189 193 194 193 194 197 202 208 214 217 220 222 217 219 216 215 212 217
166 136 215 233 266 285 275 302 283 273 293 294 266 16 312 197 167 162 166 169 171 172 176 180 181 181 180 180 184 187 190 195 198 202 205 205 207 210 214 220 225 227 230 226 227 224 223 223 227
180 127 235 224 250 275 274 288 292 284 295 314 347 329 311 180 165 142 151 160 169 175 179 182 183 183 183 184 187 190 194 200 205 209 214 216 217 219 221 222 226 231 233 233 233 231 232 233 235
76 170 226 224 240 260 299 309 302 319 344 332 312 224 227 163 148 139 139 153 167 177 184 187 186 187 187 188 189 194 196 204 210 214 218 222 224 225 226 227 228 233 236 237 237 237 239 238 243
183 189 222 230 237 288 299 298 302 321 318 314 349 6 15 135 143 151 150 161 169 183 190 193 192 192 192 192 194 197 199 204 211 216 220 223 228 230 232 233 233 235 240 241 241 240 240 241 242
225 238 246 261 275 275 282 286 302 310 299 295 309 317 18 51 355 186 170 176 184 193 191 198 199 198 195 198 200 203 205 209 214 219 225 229 230 233 232 233 232 233 238 241 240 241 241 242 243
255 264 256 257 259 262 274 288 284 284 273 283 291 265 269 126 268 280 258 188 194 186 194 198 202 201 201 203 206 209 210 213 218 223 227 230 232 234 236 237 237 237 239 241 241 242 243 244 246
257 274 267 264 260 252 257 266 275 282 278 289 289 276 229 288 282 31 182 233 198 188 191 199 200 200 202 207 208 213 217 221 225 229 232 234 235 238 240 241 242 240 241 240 242 244 245 246 247
306 316 288 266 277 283 267 265 267 269 278 281 288 287 241 228 273 126 93 146 213 196 195 205 208 204 200 205 210 214 218 223 228 231 233 236 239 241 242 243 243 243 244 242 241 244 245 247 249
286 304 313 286 266 262 282 279 256 271 300 280 275 291 289 218 252 260 166 200 183 191 196 204 207 202 202 202 209 211 217 222 228 233 234 235 238 240 239 239 239 241 244 244 241 240 245 247 251
323 263 351 320 351 276 176 259 269 282 288 283 287 275 272 276 247 258 255 192 219 180 184 205 206 207 203 207 212 215 223 227 234 236 239 237 240 242 241 239 242 237 239 241 239 238 239 242 243
319 254 267 300 241 247 216 274 326 316 283 275 276 273 277 281 234 253 266 220 206 220 202 194 197 206 214 215 214 222 228 235 236 242 241 241 241 244 240 243 248 239 234 234 236 235 235 235 239
260 266 249 227 302 4 294 293 279 295 299 302 317 316 297 276 274 242 249 264 246 214 214 187 186 203 209 220 219 220 225 233 242 245 241 241 245 247 246 248 247 242 233 233 230 230 232 232 240
264 280 290 278 238 302 282 283 287 282 298 302 300 296 296 301 287 276 235 245 254 234 221 225 218 216 204 206 209 216 221 227 235 238 237 238 241 245 247 245 242 238 232 232 233 225 225 220 229
321 319 321 293 316 312 287 283 288 287 262 274 281 285 276 294 297 286 262 233 244 244 223 228 228 221 209 205 209 210 215 224 225 228 234 239 242 240 239 239 236 232 228 229 228 227 219 219 199
5 21 342 318 327 331 303 289 299 298 287 285 278 271 288 279 291 302 291 246 232 235 221 221 218 217 206 207 207 199 211 208 214 227 234 242 251 245 240 238 234 227 222 219 220 220 219 198 203
358 336 343 329 335 284 14 288 298 303 295 292 298 307 290 295 293 290 294 282 252 228 224 215 208 202 203 202 197 197 202 207 232 245 250 249 259 259 236 231 225 220 211 216 223 217 216 213 190
220 359 333 287 280 259 232 271 278 308 295 292 293 290 291 288 286 289 289 289 267 251 237 224 223 209 200 199 204 209 218 226 241 253 255 254 257 246 226 219 211 213 218 223 219 211 212 211 209
58 10 352 318 227 244 216 216 279 268 274 280 295 290 307 328 311 299 285 283 282 266 239 223 212 213 207 210 214 220 224 228 233 238 229 238 235 216 211 201 203 205 212 218 213 214 211 213 210
77 54 340 333 334 239 8 302 271 273 275 292 324 335 320 319 329 323 317 292 280 262 229 211 199 203 211 216 220 226 231 232 232 225 217 217 202 197 191 196 196 200 208 208 206 212 212 207 214
234 171 165 270 271 299 298 251 260 297 311 288 336 294 305 318 323 313 302 291 275 263 230 204 197 199 205 213 223 228 232 230 228 220 216 213 201 194 195 195 196 200 206 199 197 206 199 203 200
264 160 209 214 249 256 264 267 280 318 345 326 314 320 313 312 316 311 307 302 268 248 226 213 206 210 215 218 224 227 231 222 221 217 212 207 203 199 194 192 191 206 199 192 193 187 192 197 201
162 210 307 312 265 256 262 280 256 311 299 285 309 295 296 300 306 312 310 311 295 236 215 209 214 217 220 222 225 227 227 225 219 206 199 203 203 198 189 185 196 193 187 184 184 181 186 195 200
323 286 85 172 176 242 310 258 217 236 248 296 305 292 284 292 314 318 301 308 318 199 180 185 189 197 204 210 216 217 216 209 204 198 199 202 198 191 187 190 188 180 178 179 178 183 192 195 196
244 207 155 130 285 263 267 271 252 238 285 266 298 292 298 305 304 288 318 301 312 296 209 212 218 201 205 210 211 207 206 195 193 198 200 196 187 187 186 184 182 181 177 177 183 187 191 193 197
Height
768 768 768 767 797 807 809 790 758 753 751 728 726 721 720 719 733 759 712 719 723 728 740 747 752 752 754 757 762 766 769 773 776 777 780 783 784 785 787 788 789 790 791 792 794 795 796 796 798
768 768 768 775 807 821 809 771 764 756 743 727 719 723 717 726 708 711 716 719 723 728 738 746 751 751 753 757 762 766 768 772 774 777 780 783 784 787 788 789 790 791 791 792 793 795 796 796 797
768 768 778 790 807 813 800 761 754 746 735 730 723 701 707 714 704 704 709 713 720 729 735 742 747 749 750 755 760 764 766 769 773 776 780 782 784 785 788 790 790 791 792 793 794 795 795 796 797
769 770 779 796 798 780 770 757 751 746 729 718 714 712 698 690 693 701 707 713 720 726 734 740 745 747 748 754 758 763 766 769 770 773 777 780 782 784 786 788 790 791 792 792 793 794 795 796 797
767 775 795 800 787 768 756 751 749 748 736 725 714 713 707 697 694 698 703 712 718 725 734 740 744 746 746 751 755 759 762 767 770 771 773 776 779 783 785 788 789 790 791 791 792 793 794 794 796
774 775 800 807 779 759 754 747 748 745 735 725 718 717 708 698 695 698 701 709 716 721 730 737 741 744 744 748 753 757 760 763 768 772 772 774 776 780 783 786 788 789 791 791 791 792 794 794 796
775 784 792 785 776 764 753 741 747 742 738 726 710 723 711 705 698 696 702 710 717 723 729 735 739 743 746 747 752 756 759 762 765 768 771 773 775 778 780 784 786 788 789 789 790 791 792 793 795
769 778 782 779 773 763 745 739 736 739 734 713 703 725 722 704 710 709 711 716 720 724 729 733 738 741 745 748 750 753 757 760 763 766 769 771 773 775 776 779 782 785 786 787 789 790 791 792 793
759 786 787 775 770 754 737 746 729 727 729 726 715 709 703 702 712 715 714 721 724 727 729 733 735 739 742 745 749 752 754 759 762 764 765 768 770 772 774 774 778 782 785 785 786 788 789 791 793
768 784 775 757 752 753 743 742 736 738 732 727 726 710 709 699 709 716 717 719 723 726 726 729 733 737 741 744 746 748 750 753 757 760 762 763 765 768 770 771 775 779 782 784 785 786 787 788 790
760 764 756 753 750 749 745 737 734 741 740 728 733 720 712 711 718 714 714 715 714 718 725 728 731 734 737 742 744 747 747 750 752 755 759 760 762 765 766 767 771 774 778 780 782 783 784 785 787
767 754 752 750 747 749 748 738 738 737 730 719 720 718 717 711 718 719 721 707 711 714 717 722 725 728 732 735 740 742 743 746 747 750 753 755 757 759 763 764 767 769 772 774 777 779 780 781 784
761 754 748 745 744 743 743 741 735 726 717 713 708 715 714 714 711 713 710 716 711 715 716 717 722 723 727 730 734 737 740 741 743 746 749 751 752 754 758 759 762 764 768 769 772 774 776 777 779
754 754 752 746 745 742 745 738 734 714 713 714 707 707 707 707 706 712 712 713 716 710 712 715 719 721 723 726 731 733 735 737 740 742 743 746 746 749 752 756 758 759 763 765 768 770 771 772 775
755 760 753 746 743 744 738 739 728 717 714 713 709 700 698 703 701 701 710 712 712 708 706 710 714 718 720 722 728 730 731 734 735 738 740 741 742 744 747 750 752 755 758 761 764 766 768 770 771
762 761 771 748 743 737 741 736 719 716 718 714 710 704 700 697 695 695 698 706 707 706 705 706 710 717 716 720 722 724 726 729 731 734 736 736 736 740 742 746 746 752 754 757 760 762 764 766 768
769 776 766 758 740 740 740 734 726 720 719 715 708 705 699 691 693 692 691 697 703 706 701 700 704 708 712 715 718 721 722 724 727 730 733 732 732 734 737 740 740 747 750 753 755 758 760 761 764
775 772 765 759 745 741 744 736 730 725 722 722 716 710 702 692 685 686 688 687 692 697 702 696 695 701 706 714 714 715 718 721 724 725 727 730 729 729 732 734 737 742 746 748 751 754 756 758 760
761 761 764 753 742 742 744 735 727 723 722 723 717 713 708 703 689 678 682 684 684 688 692 695 693 693 693 703 706 709 711 714 719 721 722 725 726 726 727 730 732 737 741 742 746 750 753 755 758
757 761 763 749 741 742 743 728 718 719 720 718 715 711 707 700 692 685 683 677 679 680 682 685 687 687 687 692 695 698 702 706 709 713 717 719 719 720 721 723 726 731 735 739 743 746 749 751 754
759 764 765 763 750 745 745 730 727 718 714 710 707 706 702 700 694 685 678 677 672 672 674 678 679 683 683 686 689 694 701 705 708 708 710 711 713 713 715 717 721 725 730 735 739 742 744 747 751
767 756 758 759 764 774 750 754 730 721 718 713 709 707 704 696 690 684 678 674 666 665 666 670 674 677 680 681 684 687 689 695 697 699 702 706 706 706 710 713 717 721 727 732 735 739 741 744 747
763 755 762 758 762 763 755 767 728 723 716 710 704 700 694 690 686 680 674 668 663 658 658 661 665 669 673 676 679 682 685 686 690 692 695 701 701 701 704 709 714 719 724 728 732 735 737 739 742
754 761 763 764 764 773 754 756 719 728 717 706 700 694 692 690 684 677 669 664 656 652 650 652 653 660 666 670 673 675 678 682 686 688 690 696 697 698 702 708 712 717 722 724 728 731 733 737 739
761 773 801 792 779 768 743 749 730 714 708 704 706 705 700 694 687 681 673 660 652 648 645 643 644 650 658 662 666 668 671 675 678 682 685 689 693 697 702 706 710 715 719 722 725 728 730 734 737
763 770 792 777 775 761 742 748 726 709 705 705 703 701 693 688 681 674 667 659 646 640 640 638 640 644 649 653 656 659 664 668 672 677 680 683 688 693 699 703 707 712 716 719 722 724 728 732 736
758 768 760 770 763 772 746 728 714 709 708 704 698 694 689 681 673 666 657 645 634 630 631 631 633 637 641 644 649 652 657 662 667 671 674 679 684 690 696 700 705 709 712 716 720 723 727 731 735
752 751 768 780 771 763 743 732 723 715 709 705 696 692 683 673 665 660 655 644 629 614 617 621 625 630 634 638 642 646 650 656 661 665 669 675 681 688 693 698 703 706 710 714 718 722 726 730 733
761 760 764 770 774 780 744 741 718 711 704 705 696 688 681 671 663 659 652 639 632 615 613 615 617 621 625 630 636 641 646 651 656 661 666 672 677 684 690 695 700 704 708 713 717 721 725 728 731
751 755 762 783 769 755 749 727 699 703 700 697 692 688 679 673 657 652 647 644 633 620 616 617 617 617 619 623 629 636 643 649 654 658 663 669 674 682 688 693 699 703 707 711 716 720 723 726 729